HECA - Cairo Intl. Airport

HECA 220500Z 33004KT 6000 NSC 28/24 Q1008 NOSIG


Sceneries:

Scenery Link
HECA/CAI - FREEWARE - MSFS2020 HECA Cairo Intl REWORKED! (Asobo Bespoke)
HECA/CAI - FREEWARE - AIG Cairo 2011
HECA/CAI - FREEWARE - Cairo Airport for X-Plane11
HECA/CAI - FREEWARE - Cairo City 2012
HECA/CAI - FREEWARE - Cairo Intl Airport 2018

Briefing & Aerodrome Charts:

If are seeing this paragrapgh, it means that you don't have a web integerated PDF reader installed, however, you can still download the PDF from here.


Our Partners

VATSIM

VATSIM is the Virtual Air Traffic Simulation network, connecting people from around the world flying online or acting as virtual Air Traffic Controllers.

VATMENA

VATME - VATSIM Middle East & North Africa Divison is part of the Africa and Middle East Region on the VATSIM Network.

Egyptair Virtual

Egyptair Virtual simulates the real life operations of Egyptair yet is not releated to the actual Egyptair.